When you browse on this site, cookies collect data to enhance your experience and personalize the content and advertising you see.
Visit our Privacy Policy to learn more. By continuing to use the site, you agree to this use of cookies and data.
  • In Hungary
  • List of Countries
  • For 7 days
  • Water Temperature
  • Satellite Maps
  • Weather Map
  • News
  • Weather Widgets
  • user-avatar
    Login

    Hourly Weather Sidi Bu-l-Abbas

    Today, 20 April, Saturday

    Time Temperature Precipitation Wind Pressure Humidity
    00:00 +9°C° 0 mm 2 mps 717 mmHg 88%
    01:00 +10°C° 0 mm 1 mps 717 mmHg 89%
    02:00 +9°C° 0 mm 1 mps 716 mmHg 89%
    03:00 +9°C° 0 mm 1 mps 716 mmHg 90%
    04:00 +9°C° 0 mm 1 mps 716 mmHg 88%
    05:00 +9°C° 0 mm 1 mps 716 mmHg 86%
    06:00 +9°C° 0 mm 1 mps 716 mmHg 84%
    07:00 +11°C° 0 mm 1 mps 716 mmHg 72%
    08:00 +13°C° 0 mm 1 mps 716 mmHg 61%
    09:00 +15°C° 0 mm 1 mps 716 mmHg 50%
    10:00 +16°C° 0 mm 2 mps 716 mmHg 46%
    11:00 +17°C° 0 mm 2 mps 716 mmHg 43%
    12:00 +19°C° 0 mm 3 mps 716 mmHg 39%
    13:00 +18°C° 0.1 mm 3 mps 716 mmHg 43%
    14:00 +18°C° 0.1 mm 4 mps 716 mmHg 48%
    15:00 +17°C° 0.1 mm 5 mps 715 mmHg 52%
    16:00 +15°C° 0.1 mm 4 mps 715 mmHg 60%
    17:00 +14°C° 0.1 mm 4 mps 715 mmHg 68%
    18:00 +13°C° 0.1 mm 4 mps 715 mmHg 76%
    19:00 +12°C° 0.1 mm 3 mps 715 mmHg 80%
    20:00 +13°C° 0.1 mm 2 mps 715 mmHg 84%
    21:00 +12°C° 0.1 mm 1 mps 715 mmHg 87%
    22:00 +12°C° 1.1 mm 1 mps 715 mmHg 87%
    23:00 +12°C° 1.1 mm 2 mps 714 mmHg 87%

    Tomorrow, 21 April, Sunday

    Time Temperature Precipitation Wind Pressure Humidity
    00:00 +10°C° 1.1 mm 2 mps 714 mmHg 88%
    01:00 +10°C° 0.3 mm 2 mps 714 mmHg 88%
    02:00 +10°C° 0.3 mm 2 mps 713 mmHg 87%
    03:00 +11°C° 0.3 mm 1 mps 712 mmHg 87%
    04:00 +10°C° 0.7 mm 2 mps 712 mmHg 88%
    05:00 +10°C° 0.7 mm 2 mps 711 mmHg 89%
    06:00 +10°C° 0.7 mm 2 mps 711 mmHg 90%
    07:00 +10°C° 0.7 mm 2 mps 711 mmHg 91%
    08:00 +10°C° 0.7 mm 3 mps 710 mmHg 92%
    09:00 +10°C° 0.7 mm 3 mps 710 mmHg 94%
    10:00 +10°C° 0.8 mm 4 mps 710 mmHg 93%
    11:00 +9°C° 0.8 mm 5 mps 710 mmHg 93%
    12:00 +10°C° 0.8 mm 7 mps 710 mmHg 93%
    13:00 +9°C° 0.3 mm 8 mps 710 mmHg 91%
    14:00 +8°C° 0.3 mm 9 mps 709 mmHg 90%
    15:00 +8°C° 0.3 mm 10 mps 709 mmHg 88%
    16:00 +8°C° 0.2 mm 10 mps 709 mmHg 89%
    17:00 +7°C° 0.2 mm 11 mps 709 mmHg 89%
    18:00 +7°C° 0.2 mm 12 mps 709 mmHg 90%
    19:00 +7°C° 2.1 mm 11 mps 709 mmHg 90%
    20:00 +7°C° 2.1 mm 10 mps 710 mmHg 90%
    21:00 +7°C° 2.1 mm 9 mps 710 mmHg 90%
    22:00 +8°C° 4.1 mm 9 mps 710 mmHg 91%
    23:00 +8°C° 4.1 mm 9 mps 710 mmHg 93%

    Day after tomorrow, 22 April, Monday

    Time Temperature Precipitation Wind Pressure Humidity
    00:00 +10°C° 4.1 mm 8 mps 710 mmHg 94%
    01:00 +10°C° 2 mm 8 mps 710 mmHg 94%
    02:00 +10°C° 2 mm 7 mps 710 mmHg 95%
    03:00 +10°C° 2 mm 7 mps 710 mmHg 95%
    04:00 +10°C° 0.3 mm 6 mps 710 mmHg 94%
    05:00 +10°C° 0.3 mm 6 mps 710 mmHg 93%
    06:00 +10°C° 0.3 mm 5 mps 710 mmHg 92%
    07:00 +11°C° 0 mm 6 mps 710 mmHg 86%
    08:00 +12°C° 0 mm 7 mps 711 mmHg 79%
    09:00 +15°C° 0 mm 8 mps 711 mmHg 73%
    10:00 +16°C° 0 mm 8 mps 711 mmHg 68%
    11:00 +17°C° 0 mm 9 mps 712 mmHg 62%
    12:00 +18°C° 0 mm 10 mps 712 mmHg 57%
    13:00 +18°C° 0.1 mm 10 mps 712 mmHg 57%
    14:00 +17°C° 0.1 mm 9 mps 711 mmHg 58%
    15:00 +17°C° 0.1 mm 9 mps 711 mmHg 58%
    16:00 +17°C° 0 mm 8 mps 711 mmHg 60%
    17:00 +16°C° 0 mm 8 mps 711 mmHg 62%
    18:00 +15°C° 0 mm 7 mps 711 mmHg 64%
    19:00 +14°C° 0 mm 6 mps 711 mmHg 68%
    20:00 +14°C° 0 mm 5 mps 712 mmHg 71%
    21:00 +13°C° 0 mm 4 mps 712 mmHg 75%
    22:00 +13°C° 0 mm 3 mps 712 mmHg 74%
    23:00 +12°C° 0 mm 3 mps 712 mmHg 72%

    23 April, Tuesday

    Time Temperature Precipitation Wind Pressure Humidity
    00:00 +12°C° 0 mm 3 mps 712 mmHg 71%
    01:00 +13°C° 0 mm 2 mps 711 mmHg 72%
    02:00 +13°C° 0 mm 2 mps 711 mmHg 72%
    03:00 +13°C° 0 mm 2 mps 711 mmHg 72%
    04:00 +13°C° 0 mm 2 mps 711 mmHg 71%
    05:00 +13°C° 0 mm 2 mps 711 mmHg 71%
    06:00 +13°C° 0 mm 2 mps 711 mmHg 70%
    07:00 +15°C° 0 mm 2 mps 712 mmHg 63%
    08:00 +16°C° 0 mm 2 mps 712 mmHg 55%
    09:00 +18°C° 0 mm 3 mps 713 mmHg 47%
    10:00 +20°C° 0 mm 4 mps 713 mmHg 43%
    11:00 +21°C° 0 mm 6 mps 712 mmHg 39%
    12:00 +22°C° 0 mm 7 mps 712 mmHg 35%
    13:00 +22°C° 0 mm 7 mps 712 mmHg 36%
    14:00 +22°C° 0 mm 6 mps 712 mmHg 36%
    15:00 +23°C° 0 mm 6 mps 711 mmHg 37%
    16:00 +21°C° 0 mm 6 mps 711 mmHg 46%
    17:00 +19°C° 0 mm 6 mps 711 mmHg 55%
    18:00 +17°C° 0 mm 5 mps 712 mmHg 64%
    19:00 +15°C° 0.1 mm 4 mps 712 mmHg 71%
    20:00 +14°C° 0.1 mm 3 mps 713 mmHg 78%
    21:00 +14°C° 0.1 mm 2 mps 713 mmHg 84%
    22:00 +13°C° 0.6 mm 3 mps 714 mmHg 86%
    23:00 +12°C° 0.6 mm 3 mps 714 mmHg 88%

    24 April, Wednesday

    Time Temperature Precipitation Wind Pressure Humidity
    00:00 +12°C° 0.6 mm 3 mps 714 mmHg 90%
    01:00 +13°C° 0.6 mm 2 mps 714 mmHg 91%
    02:00 +12°C° 0.6 mm 2 mps 714 mmHg 92%
    03:00 +12°C° 0.6 mm 1 mps 714 mmHg 93%
    04:00 +12°C° 0.2 mm 1 mps 714 mmHg 93%
    05:00 +12°C° 0.2 mm 2 mps 714 mmHg 93%
    06:00 +12°C° 0.2 mm 2 mps 715 mmHg 93%
    07:00 +12°C° 0.1 mm 2 mps 715 mmHg 91%
    08:00 +11°C° 0.1 mm 3 mps 716 mmHg 89%
    09:00 +11°C° 0.1 mm 3 mps 716 mmHg 87%
    10:00 +12°C° 0 mm 3 mps 717 mmHg 81%
    11:00 +13°C° 0 mm 4 mps 717 mmHg 75%
    12:00 +14°C° 0 mm 4 mps 717 mmHg 69%
    13:00 +14°C° 0 mm 5 mps 717 mmHg 67%
    14:00 +15°C° 0 mm 5 mps 717 mmHg 64%
    15:00 +15°C° 0 mm 6 mps 717 mmHg 61%
    16:00 +14°C° 0 mm 5 mps 717 mmHg 62%
    17:00 +14°C° 0 mm 5 mps 718 mmHg 62%
    18:00 +13°C° 0 mm 5 mps 718 mmHg 63%
    19:00 +12°C° 0 mm 4 mps 719 mmHg 67%
    20:00 +11°C° 0 mm 3 mps 719 mmHg 72%
    21:00 +11°C° 0 mm 1 mps 720 mmHg 76%
    22:00 +10°C° 0 mm 2 mps 720 mmHg 74%
    23:00 +10°C° 0 mm 2 mps 720 mmHg 72%

    25 April, Thursday

    Time Temperature Precipitation Wind Pressure Humidity
    00:00 +10°C° 0 mm 2 mps 720 mmHg 70%
    01:00 +10°C° 0 mm 2 mps 720 mmHg 69%
    02:00 +9°C° 0 mm 2 mps 719 mmHg 68%
    03:00 +9°C° 0 mm 2 mps 719 mmHg 67%
    04:00 +9°C° 0 mm 2 mps 720 mmHg 68%
    05:00 +10°C° 0 mm 2 mps 720 mmHg 69%
    06:00 +10°C° 0 mm 2 mps 720 mmHg 69%
    07:00 +12°C° 0 mm 3 mps 721 mmHg 62%
    08:00 +14°C° 0 mm 3 mps 721 mmHg 55%
    09:00 +17°C° 0 mm 4 mps 722 mmHg 48%
    10:00 +17°C° 0 mm 5 mps 722 mmHg 44%
    11:00 +20°C° 0 mm 5 mps 722 mmHg 41%
    12:00 +21°C° 0 mm 6 mps 722 mmHg 37%
    13:00 +21°C° 0 mm 6 mps 722 mmHg 37%
    14:00 +21°C° 0 mm 6 mps 722 mmHg 37%
    15:00 +21°C° 0 mm 6 mps 721 mmHg 36%
    16:00 +20°C° 0 mm 5 mps 721 mmHg 41%
    17:00 +19°C° 0 mm 5 mps 722 mmHg 46%
    18:00 +18°C° 0 mm 4 mps 722 mmHg 50%
    19:00 +17°C° 0 mm 3 mps 722 mmHg 56%
    20:00 +15°C° 0 mm 2 mps 723 mmHg 62%
    21:00 +14°C° 0 mm 1 mps 723 mmHg 68%
    22:00 +14°C° 0 mm 1 mps 723 mmHg 68%
    23:00 +13°C° 0 mm 1 mps 723 mmHg 68%
    Show more